Preview of NWS' New Version of Forecast
This preview is not operational and should not be used for support decisions.

Regional Weather Roundup (RWR)

Issued by National Weather Service (NWS)

                            
000
ASUS42 KTBW 221918
RWRFL 
FLORIDA REGIONAL WEATHER ROUNDUP
NATIONAL WEATHER SERVICE TAMPA BAY RUSKIN FL
300 PM EDT THU AUG 22 2019

NOTE: "FAIR" INDICATES FEW OR NO CLOUDS BELOW 12,000 FEET WITH NO
SIGNIFICANT WEATHER AND/OR OBSTRUCTIONS TO VISIBILITY.

FLZ001>010-012>015-112-114-115-222000-
PANHANDLE FLORIDA
  
CITY           SKY/WX    TMP DP  RH WIND       PRES   REMARKS
PENSACOLA      FAIR      85  79  82 S10       30.02F HX  98           
PENSACOLA NAS  PTSUNNY   83  79  88 SE8       30.01F                  
MILTON NAS     PTSUNNY   83  76  79 SE5       30.02F THUNDER          
CRESTVIEW      FAIR      88  75  65 VRB5      30.04F HX  97           
DUKE FIELD     FAIR      85  75  71 SE7       30.03F                  
VALPARAISO     FAIR      84  77  78 SE8       30.03F                  
MARY ESTHER    PTSUNNY   86  76  71 SE6       30.01F HX  96           
PANAMA CITY    LGT RAIN  82  77  84 SW7       30.03S                  
TYNDALL AFB    PTSUNNY   85  76  73 S12       30.02F                  
APALACHICOLA   FAIR      88  76  67 S10       30.04F HX  99           

STATION/POSITION SKY/WX   TEMP    WIND        PRES    WAVE   SWELL
                          AIR SEA DIR/SP/G            HT/PER HT/PER
                          (F)     (DEG/KT/KT) (MB)    (FT/S) (FT/S)
30.1N   87.6W              83 85  110/  4/  6 1016.6F   2/ 4   2/ 5
29.2N   88.2W              85 86   90/  2/  4 1016.4F   1/ 5   2/ 5
28.8N   86.0W                 85   90/  2/  4 1017.0F   2/ 4   2/ 4
PANAMA CITY BEAC              87  210/ 10/ 12 1017.9R
TOWER C                    84     120/  5/  5 1017.5F
28.5N   84.5W              84      90/  6/  6 1017.6F   2/ 7   2/ 7

$$
FLZ011-016>038-118-127-128-134-139-239-222000-
NORTH FLORIDA
  
CITY           SKY/WX    TMP DP  RH WIND       PRES   REMARKS
MARIANNA       PTSUNNY   91  74  57 SE7       30.02F HX 100           
TALLAHASSEE    FAIR      93  75  55 CALM      30.02F HX 104           
PERRY          FAIR      92  78  63 SW8       30.03F HX 108           
LIVE OAK       MOSUNNY   90  73  58 CALM      30.03F HX  98           
CROSS CITY     FAIR      91  73  55 E5        30.03F HX 100           
LAKE CITY      FAIR      90  70  51 SW5       30.05F HX  95           
GAINESVILLE    FAIR      91  72  53 VRB6      30.07F HX  98           
WILLISTON      FAIR      90  73  55 SE5       30.04F HX  98           
MAYPORT NAS    FAIR      89  75  63 E14       30.06F HX  99           
JACKSONVILLE   FAIR      92  71  50 E9        30.03F HX  98           
JAX NAS        PTSUNNY   93  70  46 CALM      30.05F HX  99           
JAX CECIL      MOSUNNY   97  68  38 VRB5      30.04F HX 101           
FERNANDINA BEA FAIR      87  78  74 MISG      30.06F HX 101           
ST AUGUSTINE   FAIR      88  78  72 E15       30.07F HX 101           
PALM COAST     SUNNY     90  75  62 E9G16     30.06F HX 100           

STATION/POSITION SKY/WX   TEMP    WIND        PRES    WAVE   SWELL
                          AIR SEA DIR/SP/G            HT/PER HT/PER
                          (F)     (DEG/KT/KT) (MB)    (FT/S) (FT/S)
SHELL POINT      NOT AVBL
KEATON BEACH               84     210/  8/ 10 1017.4F
CEDAR KEY                  84     220/  6/  8 1018.1F
FERNANDINA                 92 83              1018.9F
30.7N   81.3W                 85                N/A     2/11
MAYPORT                    85 82  100/  9/ 13 1018.6F
31.4N   80.9W              82 85  170/  6/  8 1017.9F   1/11   2/11
ST AUGUSTINE               83 83   80/ 10/ 11 1018.1F

$$
FLZ040-043>046-052-053-057-058-063-144-222000-
INTERIOR CENTRAL FLORIDA
  
CITY           SKY/WX    TMP DP  RH WIND       PRES   REMARKS
OCALA          FAIR      92  72  51 VRB5      30.05F HX  99           
LEESBURG       PTSUNNY   92  71  50 CALM      30.04F HX  98           
SANFORD        FAIR      90  73  57 NE13G18   30.04F HX  98           
ORLANDO EXEC   PTSUNNY   92  71  50 E13       30.03F HX  98           
ORLANDO INTL   PTSUNNY   90  72  55 E7        30.03F HX  97           
KISSIMMEE      CLOUDY    89  75  63 SE8       30.04  HX  99           
WINTER HAVEN   PTSUNNY   90  73  57 E14       30.04F HX  98           
LAKELAND       MOSUNNY   91  72  52 CALM      30.03F HX  98           
BARTOW         PTSUNNY   90  72  55 E14       30.02F HX  96           
SEBRING        MOCLDY    88  75  64 N6        30.02F HX  97           
OKEECHOBEE     PTSUNNY   86  73  66 E7        30.02F                  

$$
FLZ041-047-054-059-064-141-147-222000-
EAST CENTRAL FLORIDA
  
CITY           SKY/WX    TMP DP  RH WIND       PRES   REMARKS
ORMOND BEACH   SUNNY     86  75  70 E10       30.06F HX  95           
DAYTONA BEACH  FAIR      88  75  65 E14       30.06F HX  97           
DELAND         PTSUNNY   90  72  55 E13       30.04F HX  96           
NEW SMYRNA BEA MOSUNNY   88  77  70 E9        30.07F HX 100           
JFK SPACE CTR  FAIR      89  51  27 E9        30.04F                  
TITUSVILLE     MOSUNNY   91  72  52 E12       30.05F HX  98           
CAPE CANAVERAL FAIR      88  79  74 CALM      30.04F HX 102           
PATRICK AFB    FAIR      87  79  76 E9        30.04F HX 102           
MELBOURNE      FAIR      89  76  65 E13       30.04F HX 100           
VERO BEACH     PTSUNNY   88  75  65 E16       30.03F HX  97           
FT PIERCE      PTSUNNY   84  75  74 SE9       30.04F                  
STUART         PTSUNNY   86  73  66 NE10      30.05F                  

STATION/POSITION SKY/WX   TEMP    WIND        PRES    WAVE   SWELL
                          AIR SEA DIR/SP/G            HT/PER HT/PER
                          (F)     (DEG/KT/KT) (MB)    (FT/S) (FT/S)
28.5N   80.2W              84 84   70/  8/ 10 1017.6F   2/ 8   2/ 8
28.9N   78.5W              84 87   80/ 10/ 12 1018.5F
TRIDENT PIER               86 83   50/  7/ 10 1019.3F
28.4N   80.5W                 83                N/A     2/ 4
27.5N   80.2W                 84                N/A     2/ 4

$$
FLZ050-056-061-142-242-148-248-149-249-151-251-155-255-
160-260-222000-
WEST CENTRAL FLORIDA
  
CITY           SKY/WX    TMP DP  RH WIND       PRES   REMARKS
CRYSTAL RIVER  FAIR      91  70  49 CALM      30.03F HX  97           
INVERNESS      FAIR      91  73  55 CALM      30.03F HX 100           
BROOKSVILLE    FAIR      91  71  51 E6        30.04F HX  97           
CLEARWATER AIR CLOUDY    86  73  66 W5        30.02F                  
ST PETE CLEARW FAIR      92  71  50 CALM      30.02F HX  98           
TAMPA INTL     FAIR      91  73  55 SW8       30.02F HX  99           
PLANT CITY     PTSUNNY  N/A N/A N/A N6        30.04F                  
MACDILL AFB    FAIR      91  73  55 W3        30.02F HX  99           
PETER O KNIGHT CLOUDY    93  73  52 E5        30.02F HX 102           
ST PETERSBURG  FAIR      91  72  53 CALM      30.00F HX  98           
SARASOTA       FAIR      92  73  53 VRB5      29.99F HX 100           
VENICE         FAIR      91  77  62 W6G13     30.01F HX 105           

STATION/POSITION SKY/WX   TEMP    WIND        PRES    WAVE   SWELL
                          AIR SEA DIR/SP/G            HT/PER HT/PER
                          (F)     (DEG/KT/KT) (MB)    (FT/S) (FT/S)
27.3N   84.2W                 88                N/A     2/ 8
CLEARWATER BEACH           85 89  280/  5/  7 1017.6F
MIDDLE TAMPA BAY           86      10/  7/  8 1017.4F
VENICE                     86 86  280/ 10/ 11 1015.8F

$$
FLZ066-069-070-075>078-162-262-165-265-222000-
SOUTHWEST FLORIDA AND KEYS
  
CITY           SKY/WX    TMP DP  RH WIND       PRES   REMARKS
PUNTA GORDA    FAIR      93  73  52 NE10      30.01F HX 102           
FT MYERS       LGT RAIN  85  74  69 CALM      29.99F                  
SOUTHWEST INTL FAIR      88  76  67 N5        30.00F HX  99           
NAPLES         PTSUNNY   92  73  53 MISG      29.98F HX 100           
MARCO ISLAND   LGT RAIN N/A N/A N/A E15G21      N/A                   
IMMOKALEE      FAIR      93  73  52 NE9       29.97F HX 102           
MARATHON       FAIR      89  72  56 VRB5      29.98F HX  96           
KEY WEST NAS   FAIR      92  75  57 N9        29.99F HX 103           
KEY WEST INTL  FAIR      91  75  59 N9        29.99F HX 101           

STATION/POSITION SKY/WX   TEMP    WIND        PRES    WAVE   SWELL
                          AIR SEA DIR/SP/G            HT/PER HT/PER
                          (F)     (DEG/KT/KT) (MB)    (FT/S) (FT/S)
NAPLES                     86 88              1015.7F
26.0N   85.6W              85 85   40/  4/  6 1016.8F   2/ 8   2/ 8
DRY TORTUGAS               85      20/  6/  8 1016.3F
SAND KEY                   85     360/  4/  7 1014.7F
SOMBRERO KEY               85      80/  1/  3 1015.8F
LONG KEY                   87                 1014.6F

$$
FLZ067-068-071>074-168-172>174-222000-
SOUTHEAST FLORIDA 
  
CITY           SKY/WX    TMP DP  RH WIND       PRES   REMARKS
W PALM BEACH   FAIR      87  74  64 E14G21    30.01F HX  95           
BOCA RATON     MOSUNNY   88  75  66 NE13      30.00F HX  97           
FT LAUDER-EXEC LGT RAIN  85  76  74 E10       30.00F                  
FT LAUDERDALE  PTSUNNY   85  74  69 E18       29.99F                  
POMPANO BEACH  PTSUNNY   86  75  69 NE10      30.00F HX  95           
PEMBROKE PINES LGT RAIN  81  75  82 E13       30.01F                  
OPA LOCKA      PTSUNNY   88  74  63 E13G21    30.00F HX  96           
MIAMI          PTSUNNY   90  71  53 E13G20    29.99F HX  96           
WEST KENDALL   FAIR      90  73  57 E12       29.98F HX  98           
HOMESTEAD      PTSUNNY   86  76  72 E12       29.98F HX  96           

STATION/POSITION SKY/WX   TEMP    WIND        PRES    WAVE   SWELL
                          AIR SEA DIR/SP/G            HT/PER HT/PER
                          (F)     (DEG/KT/KT) (MB)    (FT/S) (FT/S)
VIRGINIA KEY                  89   40/  9/ 10 1015.8F
LAKE WORTH                 83 86   60/  8/ 10 1017.5F
FOWEY ROCKS                83 86   30/  9/  9 1015.8F
SETTLEMENT POINT           83      70/ 13/ 15 1016.3F

$$